Volver al catálogo

COSMOS 2385

ActivoMilitarPO
NORAD 27056·PAYLOAD·🇷🇺 Russia

Lanzado Dec 28, 2001 desde Plesetsk Cosmodrome

Loading…

Próximos Pases (próximas 24 horas)

TLE

ActualizadoSource: Space-Track

Época: Sep 14, 2026, 21:57 UTC

1 27056U 01058B   26257.91522997 -.00000047  00000-0 -32750-3 0  9993
2 27056  82.5415 162.4862 0007217  37.4955  91.2242 12.60566003137084

Sigue COSMOS 2385 en tiempo real con AllMySat

Download on the App Store